SCP
0 0 0 0 0 0 0 0 0 0 0 0 0 0 0 0 0 0 0 0 0 0
0 0 0 0 0 0 0 0 0 0 0 0 0 0 0 0 0 0 0 0 0 0
0 0 0 0 0 0 0 0 0 0 0 0 0 0 0 0 0 0 0 0 0 0
0 0 0 0 0 0 0 0 0 0 0 -0 0 0 0 0 0 0 0 0 0 0
0 0 0 0 0 0 0 0 0 0 -0 -0 0 0 0 0 0 0 0 0 0 0
0 0 0 0 0 0 0 -0 -0 -0 -0 0 0 0 0 0 0 0 0 0 0 0
0 0 0 0 0 0 0 0 0 0 0 0 0 0 0 0 0 0 0 0 0 0
0 0 -0 0 0 0 0 -0 0 -0 -0 0 0 0 0 0 0 0 0 0 0 0
0 0 0 0 0 0 -0 -0 0 0 -0 0 0 0 0 0 0 0 0 0 0 0
0 0 0 -0 0 -0 -0 -0 -0 -0 -0 0 0 0 0 0 0 0 0 0 0 0
0 0 0 -0 -0 0 0 0 0 -0 -0 -0 0 0 0 0 0 0 0 0 0 0
0 0 0 0 0 0 0 0 0 0 0 0 0 -0 -0 0 0 0 0 0 0 0
0 0 0 0 0 0 0 0 0 0 0 -0 0 -0 -0 -0 0 0 0 0 0 0
0 0 0 0 0 0 0 0 0 0 0 -0 -0 -0 -0 -0 -0 0 0 0 0 0
Wind_Speed_500mb
63 58 56 53 54 53 52 52 49 48 47 48 56 58 60 60 67 71 67 74 78 86
55 50 49 48 48 50 47 49 50 46 50 54 58 54 56 55 61 68 67 68 66 71
50 43 41 39 42 42 43 45 47 45 48 52 50 48 56 60 61 62 65 63 61 63
42 39 36 36 39 39 39 41 43 42 45 47 32 35 46 57 54 53 56 57 48 55
38 32 33 35 36 35 34 35 37 35 36 34 31 23 35 52 53 51 53 46 47 56
35 31 32 35 33 29 28 28 27 23 19 23 16 22 18 23 44 46 42 49 59 55
35 32 30 30 29 25 25 23 21 18 15 15 9 8 17 17 26 32 38 37 39 54
34 31 29 25 23 21 18 17 19 22 20 14 16 15 15 20 20 20 23 26 27 34
32 30 27 24 20 18 16 15 14 14 14 12 8 7 6 12 3 11 12 16 19 18
32 30 29 26 23 20 19 18 16 13 11 12 10 8 7 4 7 6 7 10 12 12
35 32 29 27 26 25 25 25 28 26 24 21 22 17 16 14 16 18 19 19 13 7
34 32 30 28 26 26 28 32 35 36 35 32 29 24 29 35 40 44 46 44 41 38
32 31 30 29 28 29 31 35 39 43 45 42 41 42 47 54 58 61 60 56 54 51
25 29 29 28 28 29 33 38 44 49 49 49 49 44 43 47 55 58 60 60 56 51
Wind_Direction_500mb
311 304 297 293 289 286 285 293 295 294 283 277 281 271 260 252 242 237 236 231 231 232
313 306 300 295 293 290 290 295 298 287 281 282 279 269 252 242 237 235 234 230 233 239
316 310 304 301 299 296 297 298 295 288 278 287 275 264 241 235 236 234 230 233 232 228
322 317 308 306 306 302 301 297 293 293 281 290 271 265 236 239 230 229 225 216 216 221
328 322 318 316 314 308 308 305 302 291 284 274 262 238 224 221 223 219 218 215 223 231
335 328 324 323 319 312 310 312 306 302 298 257 268 269 254 222 224 221 231 229 231 234
345 337 331 331 329 324 319 316 315 329 314 314 301 272 246 232 230 221 223 226 225 224
352 349 340 340 341 340 338 338 342 344 347 328 288 279 242 238 215 208 221 229 226 222
0 360 358 356 360 360 357 351 340 335 345 347 329 286 211 173 266 252 234 227 219 234
7 7 6 4 1 8 16 13 15 14 19 40 32 38 92 127 226 203 193 187 199 233
19 17 15 19 26 33 38 47 52 54 55 58 59 66 90 110 119 128 124 110 105 140
27 31 34 38 44 51 58 59 62 66 68 70 80 100 110 116 119 115 105 95 87 84
32 39 43 46 54 62 68 74 72 70 72 75 83 100 105 106 105 103 100 98 94 84
35 42 47 53 57 63 68 71 72 72 73 76 78 84 92 99 102 97 98 95 92 88
Wind_Speed_850mb
63 58 56 53 54 53 52 52 49 48 47 48 56 58 60 60 67 71 67 74 78 86
55 50 49 48 48 50 47 49 50 46 50 54 58 54 56 55 61 68 67 68 66 71
50 43 41 39 42 42 43 45 47 45 48 52 50 48 56 60 61 62 65 63 61 63
42 39 36 36 39 39 39 41 43 42 45 47 32 35 46 57 54 53 56 57 48 55
38 32 33 35 36 35 34 35 37 35 36 34 31 23 35 52 53 51 53 46 47 56
35 31 32 35 33 29 28 28 27 23 19 23 16 22 18 23 44 46 42 49 59 55
35 32 30 30 29 25 25 23 21 18 15 15 9 8 17 17 26 32 38 37 39 54
34 31 29 25 23 21 18 17 19 22 20 14 16 15 15 20 20 20 23 26 27 34
32 30 27 24 20 18 16 15 14 14 14 12 8 7 6 12 3 11 12 16 19 18
32 30 29 26 23 20 19 18 16 13 11 12 10 8 7 4 7 6 7 10 12 12
35 32 29 27 26 25 25 25 28 26 24 21 22 17 16 14 16 18 19 19 13 7
34 32 30 28 26 26 28 32 35 36 35 32 29 24 29 35 40 44 46 44 41 38
32 31 30 29 28 29 31 35 39 43 45 42 41 42 47 54 58 61 60 56 54 51
25 29 29 28 28 29 33 38 44 49 49 49 49 44 43 47 55 58 60 60 56 51
Wind_Direction_850mb
311 304 297 293 289 286 285 293 295 294 283 277 281 271 260 252 242 237 236 231 231 232
313 306 300 295 293 290 290 295 298 287 281 282 279 269 252 242 237 235 234 230 233 239
316 310 304 301 299 296 297 298 295 288 278 287 275 264 241 235 236 234 230 233 232 228
322 317 308 306 306 302 301 297 293 293 281 290 271 265 236 239 230 229 225 216 216 221
328 322 318 316 314 308 308 305 302 291 284 274 262 238 224 221 223 219 218 215 223 231
335 328 324 323 319 312 310 312 306 302 298 257 268 269 254 222 224 221 231 229 231 234
345 337 331 331 329 324 319 316 315 329 314 314 301 272 246 232 230 221 223 226 225 224
352 349 340 340 341 340 338 338 342 344 347 328 288 279 242 238 215 208 221 229 226 222
0 360 358 356 360 360 357 351 340 335 345 347 329 286 211 173 266 252 234 227 219 234
7 7 6 4 1 8 16 13 15 14 19 40 32 38 92 127 226 203 193 187 199 233
19 17 15 19 26 33 38 47 52 54 55 58 59 66 90 110 119 128 124 110 105 140
27 31 34 38 44 51 58 59 62 66 68 70 80 100 110 116 119 115 105 95 87 84
32 39 43 46 54 62 68 74 72 70 72 75 83 100 105 106 105 103 100 98 94 84
35 42 47 53 57 63 68 71 72 72 73 76 78 84 92 99 102 97 98 95 92 88